カタログに戻る

COSMOS 1247 DEB

運用中HEO
NORAD 12984·DEBRIS·🇷🇺 Russia

打ち上げ Feb 19, 1981 から Plesetsk Cosmodrome

Loading…

次のパス (今後24時間)

TLE

最新Source: Space-Track

元期: Sep 11, 2026, 07:57 UTC

1 12984U 81016F   26254.33175779 -.00000676  00000-0  00000-0 0  9991
2 12984  69.6605   1.3047 6093563 335.9505   4.7426  2.02678686331718

AllMySatでCOSMOS 1247 DEBをリアルタイム追跡

Download on the App Store